Location: Fosso Corella
(43.9167°N, 11.5667°E)
Time: 11:40:55
(UTC+00:00)

STARLINK-1262 - Pass Details

Date: 07 June 2020
Orbit: 548 x 551 km, 53.0° (Epoch: 02 July)

Event Time Altitude Azimuth Distance (km) Brightness Sun altitude
Exits shadow 23:33:21 - 97° (E) 1,871 6.3 -23.1°
Enters shadow 00:34:35 -63° 233° (SW) 11,990 10.4 -20.7°
Maximum altitude 01:10:10 77° 143° (SE) 565 3.5 -18.1°
